Карточка аэропорта USPP

Внимание!
Информация на этой странице в стадии наполнения.
Если вы не увидели какой-то информации, или заметили неточность - пожалуйста сообщите нам!
Спасибо!
Команда RU-STAFF
Название аэропортаБольшое Савино
Название аэропорта (англ.)Bolshoe Savino
Превышение404 ft. (123.1 m.)
Координаты57°55.866', 56°1.6019999999999'
Высота перехода3700ft
Эшелон переходаQNH>1013:FL50; 1013>QNH>977:FL60; 977>QNH:FL70;
Коды ответчика5610-5617
Зона ОрВДЕкатеринбург РПИ (USSV)
Данные METARUSPP 240830Z 34002MPS 9999 BKN017CB 18/13 Q1008 R03/090060 TEMPO VRB17MPS 1100 TSRA SQ BKN003 BKN011CB RMK QFE745
Проноз погоды (TAF)USPP 240755Z 2409/2509 06003G12MPS 8000 -SHRA BKN016CB TEMPO 2409/2418 -TSRA
NOTAMshow/hide NOTAM
AWOS   TABLE

Информация о ВПП

ВПП Длина ВПП (м.) Покрытие Курс ВПП Частота ILS
213204Железобетон211109.9
033204Железобетон31 

Диспетчерские позиции

Позывной Наименование органа УВД Частота
USPP_R_APPПермь-Круг121.700
USPP_APPПермь-Подход127.100
USPP_TWRПермь-Старт124.000



Спутниковое изображение